Wind_Speed
29 27 26 26 25 25 24 24 24 23 23 23 23 23 24 23 22 21 21 20 19 19 18 18 18 19 19 19 18 18 18 18 17 17 16 15 15 15 15 15 15 14 14 13 13 12 11 10 10 9 9 8 8 9 10 11 11 12 12 11 12 12 12 13 15 14 14 16 18 19 20 21 21 21 19 17 16 16 17 17 18 19 20 20 19
30 28 27 26 25 25 24 24 23 23 24 23 23 23 24 22 21 21 20 19 18 18 18 17 17 18 18 18 17 17 17 17 16 16 15 15 15 15 15 15 15 14 13 12 12 12 11 10 10 10 9 9 9 9 11 11 12 13 12 11 11 12 12 14 15 14 14 16 18 19 19 19 20 19 18 17 16 16 17 17 18 19 20 20 20
29 28 27 26 26 25 24 23 23 23 24 23 23 23 23 22 21 20 20 18 18 17 17 17 17 17 18 17 17 17 16 16 15 15 15 15 15 15 15 15 14 13 12 10 10 10 10 10 10 10 11 10 10 11 12 13 14 13 12 12 12 12 12 13 13 13 13 16 17 18 18 18 18 18 17 16 16 17 17 17 18 19 19 19 19
27 28 27 27 26 24 24 23 23 23 24 24 22 22 22 21 20 19 19 18 17 16 16 16 16 17 17 17 17 16 16 15 15 14 15 14 15 15 15 15 14 12 10 8 8 8 8 9 10 11 12 11 11 12 13 13 14 13 14 13 13 11 11 11 10 11 12 16 17 17 17 16 16 16 15 15 16 17 17 17 18 18 18 19 19
26 28 28 27 26 24 23 23 23 23 24 23 22 22 21 20 19 18 18 17 16 16 15 15 16 16 16 17 17 16 16 15 14 14 14 14 14 14 13 13 12 11 9 7 7 8 7 9 10 10 12 12 12 13 13 14 14 15 15 14 12 11 10 9 9 9 11 16 16 17 17 15 15 14 14 14 16 17 17 18 17 17 17 18 19
27 29 28 28 26 24 23 23 23 24 24 23 22 21 21 20 19 18 17 16 16 15 15 15 15 15 15 17 17 16 15 15 14 13 13 13 13 12 11 11 10 10 9 7 6 7 7 9 10 10 11 12 13 13 14 15 17 17 15 14 12 11 10 8 8 7 11 16 16 18 18 16 14 13 14 14 15 17 17 17 16 16 17 18 19
28 29 29 29 26 25 23 23 24 24 24 23 23 21 21 20 18 17 16 16 15 15 15 15 15 15 16 16 16 15 14 14 14 13 12 11 11 11 9 9 9 9 9 6 4 6 6 8 10 9 11 13 13 13 15 18 19 18 16 15 12 11 9 7 7 5 11 17 16 19 19 16 14 12 13 13 15 16 16 16 16 15 16 17 17
28 29 29 29 27 25 23 23 24 24 24 23 22 21 20 19 18 17 16 15 14 15 15 15 15 15 16 16 16 14 14 13 13 12 11 10 10 9 8 8 8 8 8 5 3 4 4 5 9 9 10 12 14 14 17 20 19 18 16 15 13 11 9 7 7 4 10 16 16 18 18 16 14 11 12 13 14 14 15 15 15 15 14 15 16
28 28 29 28 26 24 22 22 23 23 23 23 22 21 20 19 17 16 15 15 15 15 15 16 16 16 16 16 15 14 13 13 12 11 10 9 8 7 6 6 7 6 6 4 2 3 2 4 7 8 8 10 13 16 19 20 19 18 17 15 13 11 9 8 7 5 7 14 13 15 15 15 12 10 10 11 13 13 13 13 13 14 14 14 15
25 26 27 26 25 23 21 21 22 22 22 22 22 21 20 18 17 16 15 15 15 16 16 16 17 17 17 16 15 13 13 12 11 10 9 9 8 7 6 5 5 5 4 3 2 2 2 3 4 6 7 8 12 17 20 20 19 18 17 16 14 11 10 8 7 5 7 11 10 11 12 12 10 8 9 10 12 12 11 11 13 14 13 14 14
24 23 23 23 23 21 20 20 21 22 22 22 22 21 20 18 17 16 16 15 16 16 17 17 18 18 18 17 15 15 13 12 12 11 10 9 9 8 6 6 5 5 4 4 3 3 3 3 3 4 5 7 11 17 21 21 20 18 17 16 13 11 9 8 6 5 7 8 9 9 10 10 8 6 8 8 11 12 10 10 11 13 13 13 13
28 24 20 19 20 20 20 20 22 22 22 22 22 21 20 19 17 17 16 16 16 16 18 18 18 18 18 17 17 16 15 13 12 11 10 9 9 8 7 6 6 5 5 4 4 4 4 4 3 3 4 6 9 15 21 22 21 19 18 15 13 10 8 7 5 6 6 7 8 7 8 8 6 5 7 7 9 11 10 9 10 11 12 12 12
30 28 23 18 17 18 19 20 21 22 22 22 22 21 20 19 18 17 16 16 16 17 18 17 18 18 17 17 17 17 15 14 12 11 10 9 9 8 7 6 6 5 4 4 4 4 4 4 4 3 3 4 8 12 19 23 22 21 19 16 13 10 7 6 4 5 5 6 6 6 7 7 6 5 7 7 7 9 9 9 9 10 12 12 12
29 28 28 22 17 17 18 19 20 21 21 21 21 21 20 19 18 17 16 16 16 16 17 16 16 16 16 16 16 15 14 12 11 10 9 9 9 8 7 6 5 5 5 5 5 6 6 5 4 3 3 4 7 10 16 24 23 21 20 18 15 11 8 7 4 4 4 5 5 5 6 7 6 6 6 6 6 7 8 8 8 9 10 12 12
28 28 28 25 20 17 18 18 19 20 20 20 20 20 19 19 18 17 16 16 15 15 15 15 15 14 14 14 13 13 12 11 9 9 8 8 8 7 7 6 5 5 5 5 5 7 6 5 4 3 3 4 6 8 13 22 24 22 21 19 17 14 11 9 6 4 3 5 4 5 5 6 5 5 5 5 5 6 7 7 7 8 9 10 11
27 27 26 27 24 19 18 18 18 19 19 19 19 19 19 18 18 17 16 16 15 14 14 14 13 13 12 12 11 11 10 9 8 8 7 7 6 6 6 5 5 5 5 5 5 6 6 5 4 4 3 4 6 8 11 19 25 23 21 19 17 14 13 11 8 5 3 3 3 3 3 4 4 4 5 4 3 5 7 7 6 6 7 8 10
25 23 24 26 26 22 20 19 18 18 18 18 18 18 18 18 17 16 16 15 15 14 14 14 13 12 12 11 10 9 9 7 7 6 6 6 5 5 6 5 5 5 5 6 6 5 5 4 5 5 4 5 6 8 10 17 25 23 20 18 15 13 13 10 8 6 3 3 1 1 1 2 4 4 4 3 2 4 6 6 6 6 6 7 8
22 20 23 25 25 24 21 20 19 19 18 18 18 17 17 16 16 15 15 14 14 13 13 13 12 12 11 11 10 9 8 7 7 6 5 5 5 5 5 5 5 5 5 5 6 5 4 4 4 5 5 6 7 9 10 16 24 23 20 18 13 11 11 9 8 7 4 2 0 2 1 1 3 4 4 4 3 3 5 5 6 6 5 5 6
22 21 24 25 25 24 22 20 20 19 18 18 17 17 16 16 15 14 14 13 13 12 12 11 11 11 11 10 10 9 8 7 7 6 5 4 5 5 5 6 6 5 5 5 5 5 4 4 4 4 5 6 7 8 10 15 23 23 20 17 12 10 10 8 7 6 4 2 1 4 4 1 1 2 2 4 4 3 4 5 5 5 5 5 5
23 23 24 25 25 23 21 20 18 18 17 17 17 17 16 15 14 14 13 13 12 11 11 10 10 10 10 10 9 9 8 7 6 5 5 5 5 6 6 6 6 6 5 5 5 5 5 4 4 4 4 5 6 8 10 15 23 23 19 17 12 9 9 9 7 6 5 1 3 5 5 3 1 1 2 3 4 4 3 5 5 5 5 4 5
25 26 25 24 23 21 20 18 18 17 16 16 16 16 15 15 14 13 13 12 12 11 10 9 9 9 9 9 9 8 8 7 6 5 4 5 6 6 6 6 7 6 5 4 4 5 5 4 4 3 4 4 5 8 10 14 22 23 19 17 12 9 8 9 7 6 5 2 3 5 5 4 2 2 3 4 4 5 4 4 5 5 5 4 4
27 26 25 23 21 20 18 17 17 16 16 15 14 14 14 14 13 12 12 12 11 10 10 9 9 8 9 8 8 8 7 7 6 5 4 5 6 6 6 7 7 6 6 5 4 5 5 5 4 3 3 4 4 7 10 13 20 23 19 17 12 8 7 9 7 6 5 2 2 4 6 5 4 2 2 5 5 6 5 5 5 5 5 5 4
25 24 23 20 18 18 17 16 16 15 15 13 13 12 12 12 11 11 11 11 10 10 10 10 10 9 9 8 8 8 7 7 6 5 4 5 7 7 7 7 7 6 6 6 5 5 5 5 4 3 3 4 4 5 8 12 17 22 20 17 12 8 6 7 7 6 5 2 2 4 6 7 6 4 2 4 6 7 7 6 6 5 5 5 5
24 22 20 18 17 17 16 16 15 14 14 13 13 12 12 12 11 11 10 10 10 11 11 10 11 11 10 9 8 7 6 6 6 5 5 6 8 8 7 8 8 7 7 7 6 6 6 5 3 3 3 3 5 6 8 10 14 20 21 17 13 8 6 6 6 5 4 2 3 4 5 7 7 6 3 3 5 8 8 7 7 6 6 5 5
23 20 19 18 16 16 15 15 14 14 14 13 13 13 13 13 13 12 12 11 11 12 12 11 12 12 11 10 9 8 7 7 6 5 4 7 9 9 8 9 9 8 8 7 7 7 6 4 3 3 4 4 6 7 9 10 12 16 19 17 13 8 6 6 5 3 2 1 3 4 5 7 8 6 3 2 4 7 9 8 8 7 6 6 5
21 19 18 16 16 15 15 14 13 13 14 13 13 13 14 14 14 13 13 13 13 14 13 13 13 13 13 11 10 9 9 7 6 6 5 8 10 10 10 10 10 9 9 8 8 8 7 5 4 3 4 5 7 9 11 12 12 14 15 16 13 8 6 7 4 3 2 1 2 4 5 7 8 6 3 2 2 6 8 9 8 8 7 6 6
20 18 17 16 15 16 15 14 12 13 13 13 13 13 13 14 14 14 14 14 14 14 15 14 14 14 13 12 11 10 9 8 7 6 7 9 10 10 10 10 10 9 9 9 8 8 7 5 4 4 3 4 7 10 12 12 11 13 13 13 13 9 6 7 5 2 1 1 2 4 6 7 8 6 3 2 2 4 7 10 9 8 8 7 6
22 19 17 15 14 14 14 13 13 13 13 13 12 12 12 12 13 14 13 13 13 15 15 15 15 15 14 13 12 11 10 8 7 7 8 9 10 10 10 10 9 8 9 8 8 7 6 5 5 4 3 3 6 8 10 10 11 13 12 11 11 8 7 8 6 3 2 2 4 5 6 7 8 6 3 2 2 2 4 8 9 9 9 8 7
23 21 17 15 13 12 13 13 13 13 12 11 11 10 10 12 13 13 12 11 11 13 14 14 14 14 14 14 13 12 10 9 9 9 9 9 9 10 10 9 9 8 8 8 8 7 5 5 6 6 5 6 8 8 8 8 9 10 10 10 8 6 8 8 7 5 5 4 5 5 6 7 7 5 4 3 1 1 2 6 8 9 9 9 8
24 20 16 15 14 14 13 12 12 12 10 10 10 9 10 11 11 11 10 8 9 11 12 13 13 12 12 13 12 12 11 11 11 10 10 9 9 10 10 10 9 9 8 7 8 7 5 5 6 7 8 9 9 8 8 7 7 6 8 9 6 6 8 7 6 5 6 7 6 5 5 5 5 4 3 3 2 1 2 3 6 8 8 9 9
25 21 18 16 15 16 14 13 13 11 10 9 9 9 9 9 8 8 8 6 8 9 11 11 11 11 11 12 12 13 13 12 12 11 10 9 9 10 10 10 9 8 8 8 8 8 7 7 7 8 10 10 9 8 7 7 7 7 9 10 7 7 8 7 6 5 4 5 6 5 3 2 3 4 4 3 2 1 1 2 4 5 6 7 8
25 23 21 19 18 19 17 15 13 12 10 9 8 8 7 6 5 6 6 6 7 9 10 10 10 10 11 12 13 13 13 12 11 11 11 10 11 10 10 9 9 8 8 8 9 9 9 10 10 10 11 11 10 8 7 6 7 8 11 11 11 11 10 9 8 6 4 4 5 4 2 1 2 3 4 3 2 2 1 1 3 4 4 4 6
25 22 21 22 22 22 20 17 15 13 11 9 7 7 6 5 4 3 4 4 6 7 9 9 9 10 11 12 13 13 13 12 11 11 12 12 12 11 9 9 9 9 9 9 9 10 11 12 12 11 11 11 11 10 7 7 8 9 11 12 13 14 13 12 11 9 6 5 4 5 4 2 0 1 2 3 3 3 2 1 1 3 3 3 3
24 22 23 23 23 23 22 19 17 14 11 10 8 7 7 6 5 3 3 4 5 6 7 8 9 10 10 11 12 12 12 13 13 13 13 13 12 11 8 9 10 9 10 11 11 11 12 13 13 11 11 11 10 10 9 10 12 12 12 13 13 14 14 14 14 12 10 9 7 6 5 3 1 0 1 2 3 4 4 3 2 2 3 3 3
21 22 23 24 24 24 23 21 19 16 14 12 9 8 8 7 6 5 4 4 4 5 7 7 8 9 10 10 11 12 12 12 13 14 13 13 12 11 9 9 9 9 10 11 11 12 13 13 13 11 10 10 10 11 12 14 14 14 15 15 14 13 12 13 14 14 13 11 9 8 6 5 3 1 1 3 4 5 5 4 3 2 2 3 3
23 23 26 28 28 27 25 22 20 17 15 13 10 10 11 9 8 6 5 5 4 5 7 7 8 8 9 10 11 11 12 12 13 14 13 12 12 11 11 10 10 9 10 10 11 14 14 14 13 11 10 10 11 13 14 16 17 17 18 16 15 12 10 10 11 13 14 12 11 11 9 8 7 5 4 3 4 5 6 5 3 2 1 2 3
25 26 30 32 30 28 27 23 20 19 17 14 11 12 12 10 9 7 6 7 6 5 7 7 7 8 9 10 11 11 12 12 13 13 12 11 12 11 11 11 11 10 10 10 10 13 15 15 15 13 11 10 11 12 13 16 17 17 17 15 14 12 10 10 9 10 11 12 13 13 12 12 11 10 8 5 4 5 6 5 4 3 3 2 2
26 29 33 32 31 30 27 22 20 21 19 15 12 13 13 11 9 7 7 8 6 6 6 6 7 7 8 8 9 11 11 12 12 12 11 10 11 11 11 11 11 10 10 10 10 12 14 14 15 14 12 11 11 10 10 14 17 16 14 13 12 12 12 12 11 10 9 10 11 11 12 13 12 12 10 8 5 4 5 4 4 5 4 3 3
30 33 34 32 30 28 25 21 20 21 19 16 14 14 13 12 11 9 9 8 6 7 7 7 7 7 7 7 8 8 8 10 11 10 9 9 9 10 11 11 10 10 9 10 10 11 12 13 14 14 13 11 10 8 7 11 16 16 13 12 12 12 13 13 14 13 12 12 10 8 9 11 12 12 12 12 8 6 6 5 5 4 4 3 4
29 30 31 29 27 24 21 19 19 21 19 17 16 15 14 13 13 12 11 10 6 5 5 5 5 5 6 7 9 8 6 7 7 7 7 6 7 8 9 9 9 9 8 8 9 9 11 13 13 14 13 11 10 8 7 9 13 15 14 13 12 13 13 14 15 15 15 15 13 10 7 7 10 12 13 13 11 9 9 8 7 6 5 5 4
26 26 25 24 24 22 19 18 19 20 18 18 17 17 16 14 14 13 12 11 9 8 7 5 5 4 5 6 9 9 7 6 6 6 6 5 5 6 6 7 8 8 8 9 9 8 10 11 12 12 13 12 11 10 9 9 11 14 14 13 13 13 13 14 15 16 16 17 17 15 10 6 6 8 10 12 12 11 12 11 10 10 9 8 7
25 24 23 23 23 20 19 20 20 19 18 17 17 17 15 13 12 13 11 10 9 7 7 7 6 5 4 4 7 8 7 6 5 6 7 6 5 5 5 5 5 5 7 8 8 8 8 9 11 12 12 13 13 11 10 10 10 11 11 11 11 11 12 13 14 15 15 16 17 17 15 10 7 6 6 8 10 11 11 12 12 11 10 10 10
24 22 22 22 22 21 21 22 21 18 17 16 15 15 14 12 11 11 10 10 10 7 6 7 6 6 5 5 6 6 6 6 6 7 7 7 5 4 3 2 3 3 3 5 5 6 7 7 9 11 12 14 13 12 11 11 10 10 10 11 10 9 10 12 14 14 14 15 15 16 16 13 10 8 8 8 8 9 10 10 11 11 10 9 10
24 22 21 21 23 23 23 22 20 18 18 17 15 14 14 13 12 11 10 9 9 7 6 7 7 6 6 6 6 7 7 6 6 7 7 6 5 4 3 2 2 2 3 4 4 4 5 6 8 9 11 12 13 13 12 12 12 11 9 9 9 8 7 9 11 11 11 13 15 16 15 14 12 11 10 11 10 11 11 11 12 13 12 12 12
24 22 20 22 25 25 23 21 20 20 19 17 15 14 15 15 15 14 12 10 9 7 8 9 9 8 7 6 6 7 8 7 7 7 6 4 4 4 4 3 3 3 4 4 4 3 3 4 6 7 8 9 10 11 11 12 12 12 10 8 7 7 8 9 8 8 8 9 11 14 14 13 13 12 11 13 12 10 11 12 13 13 14 15 15
24 21 20 23 26 25 23 21 21 21 19 17 16 14 15 15 14 14 13 11 9 8 9 10 9 10 9 8 7 7 8 7 7 8 7 5 3 4 5 5 4 4 5 4 4 3 2 1 1 2 4 6 7 8 9 11 11 12 13 10 7 6 8 9 7 5 6 6 6 8 10 10 12 13 13 15 14 11 12 14 15 16 16 15 14
24 21 20 24 27 26 23 22 22 22 19 18 17 15 14 13 11 10 9 9 10 11 10 9 10 10 9 9 9 9 9 7 7 7 7 5 5 6 5 5 6 5 5 4 4 3 3 4 4 4 1 3 5 5 6 8 8 9 11 11 8 5 6 6 4 3 2 3 4 4 5 6 8 10 11 12 11 11 12 12 13 14 14 13 13
25 22 22 25 28 26 23 23 23 22 20 18 17 16 13 11 11 10 9 9 11 12 12 10 9 9 9 9 9 10 11 10 9 8 6 5 6 6 5 4 4 5 4 4 4 3 3 3 2 3 3 2 5 4 3 4 6 6 8 11 10 6 5 5 3 2 2 2 3 3 4 5 6 6 6 6 6 8 10 10 9 7 6 7 9
26 24 23 25 28 28 25 24 24 23 21 20 19 16 13 11 11 12 12 12 13 13 11 9 9 9 9 9 8 8 8 9 10 10 7 6 6 6 5 4 4 3 2 2 2 1 1 1 2 3 3 1 3 4 4 5 5 5 6 9 10 8 7 5 4 4 5 4 4 5 4 3 3 4 4 2 1 4 7 9 10 9 7 6 6
27 26 24 24 27 28 27 26 25 24 22 21 21 18 15 13 13 14 15 16 16 14 12 10 10 10 10 10 10 9 9 8 9 11 11 8 7 7 5 4 3 3 3 3 3 3 4 4 4 3 0 2 3 4 6 6 6 5 6 7 9 9 8 6 6 5 5 5 6 6 5 3 2 1 2 1 1 2 4 6 8 9 10 9 7
29 28 27 26 27 28 28 27 26 25 24 23 22 20 17 15 15 17 18 18 18 15 13 12 12 11 11 11 11 10 10 10 9 10 13 12 9 7 5 3 3 3 3 3 2 1 2 2 2 1 2 4 4 4 4 5 5 5 6 6 7 8 7 6 6 5 5 5 6 6 5 3 3 4 3 2 2 2 3 5 7 7 7 8 10
Wind_Direction
168 163 159 155 155 154 151 148 146 147 149 152 152 151 150 149 148 145 143 140 138 135 134 134 133 134 134 135 137 139 139 139 138 135 133 132 131 127 122 117 116 114 118 125 127 124 121 118 116 117 117 122 128 130 130 131 130 127 124 118 116 109 103 106 107 98 87 84 79 74 74 77 79 78 76 76 77 75 75 73 75 78 77 77 75
163 160 158 154 155 153 150 148 146 147 149 152 151 150 149 150 148 146 144 142 140 136 134 134 135 136 136 136 137 138 140 140 138 135 130 128 125 121 115 110 109 109 112 114 118 123 123 122 118 118 114 118 124 127 128 128 130 130 129 125 119 112 109 109 106 99 90 86 82 77 73 71 73 75 76 77 78 77 75 74 76 77 77 76 75
160 157 156 152 154 152 150 147 146 147 149 151 150 149 148 150 149 147 145 144 142 138 136 134 135 137 138 137 136 136 136 138 136 134 129 125 121 116 111 107 107 110 113 107 105 114 121 124 123 122 116 115 122 126 125 127 132 133 131 127 121 117 114 111 109 104 93 87 83 80 75 71 71 73 76 80 78 75 74 75 76 77 77 78 77
160 155 154 151 153 151 149 148 147 147 149 149 148 148 148 150 150 148 146 145 144 141 139 136 136 138 141 141 138 138 137 137 135 135 131 128 122 117 114 111 110 110 113 106 93 97 110 120 122 121 115 115 120 122 125 129 132 134 131 127 125 121 117 115 114 112 99 86 81 78 76 73 71 72 75 80 79 75 73 74 76 77 78 80 81
158 153 153 150 152 151 150 148 146 146 147 148 147 147 149 152 151 149 147 146 145 142 139 137 138 138 142 144 143 140 140 141 138 138 135 131 126 120 118 113 113 112 110 105 86 80 100 118 120 121 117 114 115 121 127 129 130 133 131 128 126 124 122 121 120 122 108 90 81 74 73 74 71 70 72 75 79 78 73 73 74 75 76 78 81
156 152 151 150 152 151 151 148 146 146 147 147 147 148 150 153 152 150 147 145 144 141 138 137 138 139 140 144 145 141 141 144 143 141 137 133 127 124 121 117 114 112 111 108 87 66 89 116 118 122 121 114 111 122 130 130 131 133 132 129 128 129 128 126 126 131 116 97 83 73 69 68 65 65 69 71 76 79 77 74 74 74 74 75 80
155 151 151 150 151 152 152 149 146 146 147 148 148 150 151 154 154 151 148 144 143 139 137 137 138 139 140 142 145 143 142 143 144 143 140 134 130 130 127 126 122 115 114 113 93 60 77 109 114 118 120 117 114 122 131 134 136 135 134 132 132 130 126 126 125 137 119 98 81 73 66 60 60 63 67 69 72 75 77 76 76 75 76 77 80
153 152 151 150 152 153 153 149 146 146 148 149 150 151 152 154 155 152 148 144 141 138 137 137 139 140 142 143 144 143 142 141 141 141 138 134 131 134 129 128 127 122 119 118 97 50 60 100 112 112 114 120 118 124 133 138 139 137 137 134 131 127 126 128 120 142 121 97 80 72 62 55 60 64 67 71 72 72 75 76 79 78 78 78 80
152 152 150 151 152 152 151 147 144 146 148 149 150 151 151 153 153 150 146 144 140 138 137 138 140 140 141 141 141 140 139 137 138 137 134 131 129 128 124 125 129 130 129 132 99 28 44 94 109 106 106 116 119 128 137 140 140 138 136 132 130 130 134 139 138 159 117 93 80 69 58 50 57 65 69 74 76 75 76 79 83 82 81 80 80
152 152 151 151 151 151 148 145 143 144 147 148 149 148 148 149 149 147 145 143 140 138 137 137 139 139 140 141 142 141 139 136 134 133 128 127 128 127 128 129 133 134 135 136 99 45 56 84 100 101 105 114 121 134 140 141 141 137 135 131 131 133 138 154 162 152 93 84 78 61 48 47 56 68 72 76 80 81 78 80 83 83 84 83 81
153 155 156 152 150 149 146 143 142 142 144 144 145 145 145 146 145 145 144 142 139 136 135 135 137 138 139 141 143 143 140 136 132 130 127 127 130 130 129 125 124 121 116 107 95 95 95 93 101 102 111 119 121 138 145 142 140 138 135 131 128 132 147 172 166 122 88 81 75 52 36 41 55 75 78 76 82 86 82 80 83 86 87 86 83
151 154 157 156 152 149 148 144 142 141 141 142 142 142 143 144 144 144 143 140 137 135 135 134 135 137 138 139 140 140 139 137 135 132 131 132 131 127 121 117 117 115 110 102 102 108 107 108 109 103 118 130 124 137 149 145 140 140 135 130 127 136 164 183 156 118 105 86 72 47 33 41 57 86 87 80 81 87 87 85 85 90 91 88 85
149 150 153 157 157 153 151 145 143 141 141 142 141 142 142 143 143 143 141 138 137 135 136 136 136 137 137 138 139 140 140 138 137 136 135 134 130 126 120 116 115 115 114 106 109 113 112 115 109 107 121 142 131 135 151 149 144 143 137 132 132 143 177 191 157 127 113 87 71 53 46 54 78 101 93 86 83 87 91 90 88 90 92 91 89
151 151 151 154 162 161 153 147 145 145 145 145 144 144 143 143 142 140 139 137 137 136 137 137 137 137 138 140 141 141 141 140 138 138 137 135 133 130 126 120 115 114 114 108 111 114 115 115 103 108 124 146 141 136 153 155 151 147 142 137 141 153 185 197 165 137 114 90 74 62 62 66 88 114 105 95 91 92 94 94 91 90 93 93 93
154 154 151 151 161 165 155 148 147 148 149 146 146 145 144 144 142 140 139 138 137 138 138 138 138 139 142 143 145 145 145 143 139 140 139 140 138 138 136 129 123 117 118 112 116 122 117 110 93 93 119 140 144 139 153 160 157 150 145 144 149 161 188 196 166 156 136 102 79 58 57 63 88 122 117 107 101 100 97 97 92 88 93 95 94
156 154 154 152 156 163 156 151 149 150 149 148 148 146 147 146 143 142 140 139 138 140 139 139 141 142 147 148 151 151 151 148 142 143 143 145 145 147 149 147 141 131 127 120 122 129 118 104 92 82 99 128 139 139 150 162 161 153 148 148 153 167 190 193 167 167 158 106 71 44 42 58 93 124 123 123 120 111 104 100 95 89 90 92 93
155 153 158 155 153 158 158 155 153 151 151 150 150 150 151 148 145 145 143 144 143 143 142 141 143 145 150 152 156 156 153 150 146 146 146 149 150 155 160 161 156 142 133 125 125 126 115 103 96 84 87 117 133 138 144 161 163 156 151 147 150 168 189 189 160 154 153 116 71 12 335 59 97 132 135 144 145 119 113 105 102 101 89 86 92
157 153 158 157 153 158 163 159 158 156 156 154 154 155 155 153 150 149 148 150 150 149 147 145 147 150 153 154 156 156 154 151 149 151 152 157 158 165 171 168 164 152 140 133 132 127 121 112 105 93 91 113 127 137 141 157 164 160 153 146 145 167 183 183 157 142 137 129 112 331 323 55 113 144 148 158 177 138 120 111 106 109 98 88 90
158 157 160 161 158 162 166 163 164 161 160 158 157 160 161 161 157 157 156 158 159 157 156 154 155 157 158 157 157 158 157 155 155 160 165 173 173 176 178 172 169 164 154 146 146 141 137 129 119 105 94 110 121 134 138 153 164 162 156 148 145 164 178 182 163 141 137 137 335 339 341 347 146 156 170 175 189 191 133 123 114 109 107 97 92
158 164 164 164 163 166 168 166 167 164 165 163 163 166 168 169 166 166 165 165 167 166 168 166 166 167 166 165 164 164 162 161 161 164 171 179 185 185 184 179 178 177 170 165 163 156 149 141 135 123 105 107 115 132 138 150 165 165 158 152 145 157 177 188 175 150 145 140 351 351 350 341 301 242 238 202 190 205 172 142 134 120 119 110 104
163 169 168 166 167 169 170 169 170 170 172 170 171 173 174 176 174 176 174 174 176 177 178 177 180 180 180 176 173 171 167 168 163 163 176 183 191 191 190 187 186 188 186 184 177 168 160 155 151 142 135 128 119 132 141 150 166 169 161 153 147 150 178 194 189 172 151 131 1 1 357 357 334 284 245 220 201 210 204 164 155 142 134 125 116
166 173 173 170 170 171 172 174 176 176 177 176 178 180 182 183 183 185 182 184 184 186 190 189 195 197 197 193 186 180 175 175 168 170 185 191 196 194 195 194 190 194 198 200 194 184 173 167 166 162 156 153 134 132 142 149 164 172 164 155 150 145 178 200 202 189 156 142 331 346 342 347 349 329 246 225 215 212 214 190 173 162 150 142 135
164 172 174 171 172 173 176 180 182 182 182 183 187 189 193 193 195 195 193 194 194 198 201 201 205 211 212 210 202 192 186 187 185 190 193 197 199 194 195 198 194 193 199 204 205 201 190 181 179 191 188 173 162 140 141 148 161 171 167 159 156 147 170 200 200 184 157 168 282 324 330 336 344 343 293 236 222 214 218 206 188 176 164 156 150
162 165 167 170 176 178 181 186 188 188 187 190 195 198 202 205 207 206 205 204 207 212 213 211 212 221 222 223 220 210 207 204 205 208 199 198 197 193 195 200 199 196 202 207 205 206 205 201 203 220 219 194 183 162 146 148 159 170 172 169 170 169 174 195 193 168 145 169 269 306 325 333 340 342 321 258 229 216 218 212 197 186 177 167 160
158 156 159 168 175 180 185 188 192 193 193 196 200 205 208 212 214 213 215 215 219 223 222 220 220 226 227 230 232 226 227 223 220 215 200 197 192 195 201 203 206 204 210 213 210 210 213 224 241 244 232 212 196 179 162 153 158 170 177 180 183 186 186 198 194 150 114 192 269 298 317 326 335 339 323 275 230 215 217 215 202 195 189 181 174
151 150 155 161 166 173 181 187 191 194 196 198 202 209 212 215 217 217 218 219 224 228 229 227 227 232 232 234 236 236 238 235 232 223 209 202 194 197 202 205 212 211 215 218 215 212 215 230 246 247 233 215 200 186 176 163 158 165 174 183 189 188 189 207 199 119 73 303 272 296 310 319 328 334 316 276 228 214 218 216 207 203 200 194 187
147 150 151 154 161 167 174 181 185 191 192 194 201 206 212 216 217 218 217 220 225 229 232 232 233 236 238 240 240 241 241 240 234 220 210 205 199 201 202 206 214 216 220 221 214 210 215 226 235 236 229 213 200 192 187 177 164 160 163 175 185 185 190 209 201 141 134 266 274 295 310 317 324 329 322 299 258 230 222 215 210 204 202 201 198
148 153 153 153 160 164 170 175 180 187 187 189 195 198 206 209 210 213 213 216 221 229 234 235 236 236 238 240 241 243 239 236 226 210 208 208 205 203 202 205 212 218 219 217 211 207 213 213 207 207 202 187 183 184 189 189 176 161 157 166 177 183 190 204 207 199 211 246 270 285 304 314 320 330 338 328 295 247 224 216 214 207 206 208 206
149 150 150 150 161 166 167 173 176 181 181 182 188 192 197 198 201 204 205 206 210 224 232 233 232 229 232 234 237 239 232 228 220 211 213 213 210 204 201 201 206 213 210 211 209 202 203 198 187 187 181 167 165 168 171 180 178 163 161 164 171 188 190 197 212 223 224 233 256 277 296 307 314 328 341 331 294 213 200 212 218 214 213 215 214
147 149 153 154 166 174 167 167 169 168 170 171 177 186 190 191 193 195 201 202 196 212 226 228 227 225 228 229 230 229 222 221 215 214 216 216 213 205 200 199 203 210 207 206 206 201 200 198 190 178 174 171 168 169 162 162 168 167 173 169 174 206 197 197 215 228 233 233 243 265 285 298 306 316 329 327 300 219 170 191 211 216 221 223 224
150 158 169 165 169 181 173 163 165 163 162 164 168 175 177 177 181 188 197 196 193 203 216 224 224 222 225 223 223 222 219 217 212 216 217 215 213 206 199 198 203 209 207 203 202 203 201 197 192 179 174 176 177 178 171 165 169 174 185 185 194 213 209 216 232 233 235 240 246 253 266 298 302 297 302 315 324 277 203 159 188 207 223 229 232
158 165 173 170 169 180 179 168 166 164 163 166 166 166 165 164 167 183 193 190 197 205 213 225 224 220 222 222 219 219 221 220 216 219 219 217 215 209 202 199 206 208 207 210 207 207 205 199 194 187 182 180 183 186 183 186 193 190 193 202 211 215 213 220 236 238 228 247 253 236 231 286 297 291 294 301 328 337 305 167 178 197 210 223 230
163 167 173 175 169 175 180 173 166 166 170 174 172 173 175 175 174 179 189 187 190 202 215 227 231 228 225 223 221 221 226 226 223 223 222 220 215 213 210 204 208 211 211 215 213 210 210 205 200 196 190 187 190 192 200 224 227 212 208 219 223 221 220 220 226 231 232 251 255 227 219 212 143 316 309 313 331 347 336 309 227 209 202 201 207
164 167 173 174 168 175 182 172 166 171 177 184 189 194 193 192 197 193 197 195 186 202 216 220 230 236 230 226 228 228 230 230 228 225 222 221 216 213 214 206 208 214 215 216 216 214 214 212 208 204 197 195 200 202 213 233 236 226 221 227 228 227 229 227 224 226 231 239 243 230 215 203 177 16 328 334 344 352 348 332 289 241 217 206 202
169 170 172 170 171 182 183 171 171 179 185 193 200 199 197 198 205 204 202 202 192 199 204 205 218 230 233 233 234 234 233 233 233 229 225 224 222 217 217 217 217 220 219 215 213 213 215 216 215 214 208 204 210 214 218 227 232 228 225 227 226 229 237 238 235 233 229 230 237 234 220 215 216 223 287 322 336 343 346 341 324 268 230 221 218
175 169 169 171 177 183 180 174 178 187 190 196 201 198 198 196 193 196 197 194 185 177 180 197 213 220 232 239 237 235 232 232 235 235 232 230 231 229 228 229 225 219 219 215 209 210 216 221 224 225 223 222 226 232 233 233 232 228 227 226 222 224 235 240 239 234 229 228 233 232 229 226 229 238 253 291 323 332 334 330 328 315 265 239 233
172 166 168 173 176 177 177 179 186 193 197 199 200 198 198 192 190 194 191 189 190 181 176 196 212 210 217 228 230 229 230 233 233 234 234 232 235 236 232 230 225 218 217 216 210 213 219 224 229 231 233 237 239 243 245 237 227 223 225 221 215 218 224 225 219 220 224 228 230 231 232 228 230 238 239 252 299 323 325 317 309 311 305 289 269
168 163 168 170 171 172 175 184 191 198 203 205 202 195 191 188 192 197 189 186 187 182 174 182 196 201 204 212 220 222 224 228 224 223 226 226 229 229 225 228 229 223 217 217 215 218 222 225 231 233 238 245 240 240 243 229 216 214 218 215 215 217 220 220 211 204 207 217 229 233 230 228 230 232 227 228 249 283 299 299 299 306 310 314 316
166 162 168 170 171 173 178 188 196 200 205 207 199 192 191 187 188 190 192 195 186 176 170 175 187 192 196 201 211 215 213 212 212 212 213 216 219 221 224 229 232 228 222 219 214 215 223 228 232 234 237 241 235 232 233 222 214 213 216 221 225 226 228 229 221 215 210 211 220 225 225 225 225 225 221 217 223 241 251 255 276 297 306 308 319
165 166 173 175 178 179 184 193 199 202 203 201 194 191 192 189 185 182 188 201 208 205 198 198 208 211 215 214 208 205 196 189 189 190 191 193 199 213 222 226 228 226 226 230 223 218 222 227 233 235 234 235 232 228 227 225 220 217 223 233 238 238 238 237 231 227 225 223 221 218 217 216 217 223 222 216 220 233 235 235 247 256 265 269 278
169 177 183 185 188 189 193 197 196 198 198 192 189 191 194 190 184 180 181 192 208 227 236 239 245 246 248 230 209 204 195 179 166 164 161 157 170 186 198 208 215 219 226 235 235 228 225 227 233 236 232 231 232 230 228 229 226 223 230 240 243 243 241 238 234 231 233 233 231 230 227 213 210 223 224 218 222 231 232 233 239 245 253 257 261
179 189 196 197 198 197 196 192 188 188 186 181 179 182 186 184 179 177 174 175 183 205 228 235 243 250 251 236 215 208 202 200 196 188 178 167 168 170 174 186 194 208 222 230 235 235 233 234 238 241 236 233 236 238 233 231 231 233 242 248 249 249 244 237 231 228 231 232 231 234 233 225 217 225 233 230 232 236 235 236 240 247 255 257 255
191 197 204 205 202 197 191 187 182 178 174 170 168 167 168 172 174 172 169 164 166 183 210 221 230 241 240 239 237 227 215 216 217 215 204 191 185 173 154 150 159 173 194 210 223 233 238 239 241 244 241 239 242 244 241 237 237 241 249 253 255 257 245 234 228 226 228 229 228 231 233 232 231 231 232 234 240 244 242 242 247 256 264 263 256
197 201 204 202 197 191 186 184 181 174 168 163 162 161 158 164 172 172 172 166 164 179 194 198 209 219 221 228 238 240 234 225 218 222 218 203 199 194 171 135 145 159 171 193 212 223 236 242 242 241 240 242 244 244 243 243 242 239 241 248 250 251 246 238 236 235 236 236 234 233 235 238 240 241 241 241 240 244 249 252 258 265 270 272 269
201 204 203 197 191 187 184 183 179 173 170 165 164 167 166 171 178 178 181 178 169 174 176 176 183 190 194 197 203 216 225 224 222 230 231 216 196 187 185 174 151 157 171 180 196 204 215 231 237 237 235 239 243 243 242 243 240 234 233 234 238 245 247 245 247 249 247 243 236 232 235 241 244 244 248 247 235 235 253 257 263 270 271 274 274
203 207 205 195 189 186 184 183 181 179 179 175 173 179 181 182 185 183 184 186 176 169 167 161 158 165 172 176 175 185 201 214 224 231 229 210 164 142 159 166 150 151 163 167 179 189 180 177 195 214 228 233 236 239 242 240 235 231 230 229 235 251 246 241 244 250 252 247 232 224 229 239 244 245 251 255 245 244 261 260 257 262 267 274 276
203 208 205 196 192 190 187 185 186 188 187 183 183 191 193 193 196 193 192 192 178 163 160 154 148 151 156 164 171 178 190 202 212 219 216 189 148 138 143 146 144 147 148 149 152 145 116 101 84 70 65 211 211 224 235 234 230 228 225 222 226 239 231 220 220 234 258 255 229 221 231 234 240 246 259 271 261 250 261 264 257 257 263 272 276
202 206 205 199 196 195 192 191 191 194 194 191 191 195 199 201 202 202 204 204 186 166 158 154 147 145 143 148 160 175 192 205 210 209 204 175 148 146 142 135 140 144 145 154 153 130 113 109 65 29 30 156 184 193 204 205 208 214 214 210 208 208 210 202 187 196 224 230 208 211 231 233 237 245 257 276 264 245 252 255 253 253 259 275 282
203 207 207 203 201 199 197 196 195 198 199 196 196 197 199 203 207 210 209 201 185 168 159 154 147 145 139 133 134 143 164 190 203 200 187 168 157 156 151 141 137 136 148 182 183 174 218 270 312 338 14 92 160 162 167 173 178 187 192 197 199 199 207 206 197 213 218 206 191 193 207 216 230 238 226 230 262 255 255 249 246 245 245 266 288
206 210 211 209 207 205 203 201 200 201 202 200 199 196 195 199 209 216 211 195 180 169 162 156 151 145 135 127 125 124 127 144 177 192 187 173 165 168 171 173 180 192 214 241 255 276 291 299 309 312 17 111 123 131 146 154 160 170 171 178 191 195 199 200 202 217 219 207 197 192 186 152 112 172 197 162 48 341 308 288 273 261 251 249 255
206 211 214 215 214 211 209 207 205 204 203 202 200 195 192 194 206 216 210 192 179 172 165 157 154 146 136 130 129 127 126 125 140 172 186 187 185 186 190 193 171 145 141 145 137 92 51 41 19 6 144 142 136 132 140 147 152 159 159 167 183 190 196 201 203 208 206 199 199 198 191 164 105 81 71 36 338 322 313 295 281 274 264 241 236
Height
1506 1508 1510 1511 1513 1513 1514 1514 1513 1513 1514 1515 1517 1519 1521 1522 1524 1525 1526 1527 1528 1529 1529 1530 1531 1531 1532 1532 1533 1533 1534 1534 1535 1535 1536 1537 1538 1538 1538 1538 1539 1539 1539 1540 1540 1540 1540 1540 1540 1541 1541 1541 1542 1543 1543 1544 1545 1545 1546 1546 1546 1546 1546 1547 1547 1547 1547 1547 1547 1547 1546 1545 1544 1544 1544 1544 1543 1543 1543 1542 1542 1541 1541 1540 1540
1506 1509 1510 1512 1513 1514 1515 1514 1514 1514 1514 1516 1517 1519 1521 1523 1524 1526 1527 1528 1529 1529 1530 1530 1531 1532 1533 1533 1534 1534 1535 1535 1535 1536 1537 1538 1538 1539 1539 1539 1540 1540 1540 1540 1540 1540 1541 1541 1541 1541 1542 1542 1542 1543 1544 1545 1545 1546 1546 1547 1547 1547 1547 1547 1547 1548 1548 1548 1548 1548 1548 1547 1546 1545 1545 1545 1545 1544 1544 1544 1543 1542 1542 1542 1541
1507 1509 1511 1512 1514 1515 1516 1515 1515 1514 1515 1516 1518 1520 1522 1524 1525 1527 1528 1529 1529 1530 1530 1531 1532 1532 1533 1534 1534 1535 1535 1536 1536 1537 1537 1538 1539 1540 1540 1540 1541 1541 1541 1541 1541 1541 1541 1541 1541 1542 1542 1543 1543 1544 1545 1545 1546 1547 1547 1547 1548 1548 1548 1548 1549 1549 1549 1550 1549 1549 1549 1549 1548 1547 1547 1546 1546 1545 1545 1545 1544 1544 1543 1543 1542
1508 1510 1511 1513 1515 1516 1517 1516 1516 1515 1516 1517 1519 1521 1523 1525 1526 1527 1528 1529 1530 1530 1531 1531 1532 1533 1533 1534 1535 1535 1536 1536 1537 1537 1538 1539 1539 1540 1541 1541 1541 1542 1542 1542 1542 1542 1542 1542 1542 1542 1543 1543 1544 1544 1545 1546 1546 1547 1547 1548 1548 1548 1549 1549 1549 1550 1550 1551 1551 1550 1550 1550 1550 1549 1548 1548 1547 1546 1546 1546 1545 1545 1545 1544 1544
1508 1510 1512 1513 1516 1517 1517 1517 1516 1516 1516 1518 1520 1522 1524 1525 1527 1528 1529 1530 1530 1531 1531 1532 1533 1533 1534 1534 1535 1536 1536 1537 1537 1537 1538 1539 1540 1541 1541 1542 1542 1542 1543 1542 1542 1542 1542 1542 1543 1543 1543 1544 1545 1545 1546 1546 1547 1548 1548 1548 1549 1549 1549 1549 1550 1550 1551 1552 1552 1551 1551 1551 1551 1551 1550 1549 1548 1548 1547 1547 1547 1546 1546 1546 1545
1508 1510 1512 1514 1516 1517 1518 1517 1516 1516 1517 1518 1520 1522 1524 1526 1527 1529 1530 1530 1531 1532 1532 1532 1533 1534 1534 1535 1536 1536 1537 1537 1538 1538 1539 1539 1540 1541 1542 1542 1543 1543 1543 1543 1543 1543 1543 1543 1543 1543 1544 1545 1545 1546 1546 1547 1548 1548 1549 1549 1549 1549 1549 1550 1550 1550 1552 1553 1553 1552 1552 1552 1553 1552 1552 1551 1550 1549 1548 1548 1548 1547 1547 1547 1547
1508 1510 1512 1514 1515 1517 1518 1517 1516 1516 1517 1518 1520 1522 1524 1526 1527 1529 1530 1531 1531 1532 1532 1533 1533 1534 1535 1536 1536 1537 1538 1538 1539 1539 1539 1540 1540 1541 1542 1543 1543 1544 1544 1544 1544 1544 1544 1544 1544 1544 1545 1545 1546 1546 1547 1547 1548 1549 1549 1549 1549 1549 1549 1550 1550 1550 1552 1554 1553 1554 1554 1554 1554 1554 1554 1553 1552 1550 1550 1549 1549 1549 1548 1548 1548
1509 1511 1512 1513 1515 1516 1517 1517 1516 1516 1517 1518 1520 1522 1524 1526 1528 1529 1530 1531 1531 1532 1533 1533 1534 1535 1535 1536 1537 1538 1538 1539 1539 1539 1540 1540 1541 1541 1542 1543 1543 1544 1544 1545 1545 1545 1545 1544 1544 1545 1545 1546 1546 1547 1547 1548 1549 1549 1549 1550 1550 1550 1550 1550 1550 1550 1552 1554 1554 1555 1555 1555 1555 1555 1555 1554 1553 1552 1551 1551 1550 1550 1549 1549 1549
1512 1512 1513 1514 1515 1517 1519 1519 1518 1517 1518 1519 1521 1523 1525 1527 1528 1529 1530 1531 1532 1532 1533 1534 1535 1535 1536 1537 1537 1538 1539 1539 1539 1540 1540 1541 1541 1542 1542 1543 1543 1544 1545 1545 1545 1545 1545 1545 1545 1545 1546 1547 1547 1548 1548 1549 1549 1550 1550 1550 1550 1550 1550 1550 1550 1550 1552 1555 1555 1555 1556 1556 1556 1556 1556 1555 1555 1554 1553 1552 1552 1551 1551 1550 1550
1518 1517 1517 1517 1518 1520 1521 1521 1520 1520 1520 1521 1522 1524 1526 1528 1529 1530 1531 1532 1532 1533 1533 1534 1535 1536 1537 1537 1538 1539 1539 1539 1540 1540 1541 1541 1542 1542 1543 1543 1544 1544 1545 1545 1545 1546 1546 1546 1546 1546 1547 1547 1548 1548 1549 1550 1550 1550 1551 1551 1551 1551 1551 1551 1551 1551 1553 1555 1556 1556 1557 1557 1557 1557 1557 1557 1556 1555 1554 1554 1553 1552 1552 1552 1551
1520 1522 1522 1521 1521 1522 1523 1523 1522 1521 1522 1522 1524 1525 1527 1528 1530 1531 1532 1532 1533 1533 1534 1535 1535 1536 1537 1538 1539 1539 1539 1540 1540 1540 1541 1541 1542 1543 1543 1543 1544 1544 1545 1545 1546 1546 1546 1546 1546 1547 1547 1548 1549 1549 1549 1550 1551 1551 1552 1552 1552 1552 1552 1551 1552 1553 1554 1555 1556 1557 1557 1558 1558 1558 1558 1558 1557 1556 1556 1555 1555 1554 1553 1553 1552
1516 1521 1525 1526 1525 1525 1525 1524 1523 1523 1523 1524 1525 1526 1527 1529 1531 1532 1533 1533 1533 1534 1534 1535 1536 1537 1537 1538 1539 1539 1540 1540 1540 1541 1541 1542 1542 1543 1543 1544 1544 1545 1545 1546 1546 1546 1546 1546 1547 1547 1547 1548 1549 1550 1550 1551 1551 1552 1553 1553 1553 1553 1552 1552 1553 1554 1555 1555 1556 1557 1558 1558 1559 1559 1559 1559 1558 1558 1557 1556 1556 1555 1554 1554 1554
1514 1516 1521 1526 1527 1527 1526 1525 1524 1524 1524 1525 1525 1526 1528 1529 1531 1533 1534 1534 1534 1534 1535 1535 1536 1537 1537 1538 1539 1539 1540 1540 1541 1541 1542 1542 1543 1543 1543 1544 1544 1545 1546 1546 1546 1546 1546 1547 1547 1547 1548 1548 1549 1550 1550 1551 1551 1552 1553 1553 1554 1553 1552 1552 1554 1555 1555 1556 1557 1558 1559 1559 1559 1559 1559 1559 1559 1559 1558 1558 1557 1556 1556 1555 1555
1515 1515 1516 1523 1528 1529 1528 1526 1525 1525 1525 1526 1526 1527 1529 1530 1531 1533 1535 1536 1536 1535 1535 1536 1536 1537 1538 1538 1539 1540 1540 1540 1541 1541 1542 1542 1543 1543 1544 1544 1545 1545 1546 1546 1546 1546 1547 1547 1547 1548 1548 1548 1549 1550 1551 1551 1551 1552 1553 1553 1553 1553 1552 1552 1554 1555 1555 1556 1557 1558 1559 1560 1560 1560 1560 1560 1560 1560 1560 1559 1558 1558 1557 1556 1556
1515 1515 1515 1519 1525 1528 1528 1527 1526 1526 1527 1527 1528 1529 1530 1531 1532 1534 1536 1537 1537 1537 1537 1537 1537 1538 1538 1539 1540 1540 1540 1541 1541 1541 1542 1542 1543 1543 1544 1544 1545 1546 1546 1546 1546 1547 1547 1547 1547 1548 1548 1549 1549 1550 1551 1551 1552 1552 1553 1553 1553 1552 1552 1552 1554 1555 1556 1557 1557 1559 1559 1560 1560 1561 1561 1561 1561 1561 1560 1560 1560 1559 1558 1557 1557
1515 1517 1517 1516 1521 1526 1527 1527 1527 1527 1528 1529 1530 1530 1531 1532 1533 1535 1537 1538 1538 1538 1538 1538 1538 1539 1539 1540 1540 1540 1540 1541 1541 1541 1542 1542 1543 1543 1544 1544 1545 1546 1546 1546 1546 1547 1547 1547 1548 1548 1548 1548 1549 1550 1551 1551 1552 1553 1553 1554 1553 1552 1552 1552 1554 1556 1556 1557 1558 1559 1560 1561 1561 1561 1561 1561 1561 1561 1561 1561 1561 1560 1559 1559 1558
1516 1518 1520 1518 1518 1523 1526 1526 1527 1528 1529 1529 1530 1531 1532 1533 1534 1535 1537 1538 1539 1539 1539 1539 1539 1540 1540 1541 1541 1541 1541 1541 1541 1541 1542 1542 1543 1543 1543 1544 1545 1545 1546 1546 1547 1547 1547 1548 1548 1548 1548 1548 1549 1550 1550 1551 1552 1553 1554 1554 1554 1553 1552 1553 1555 1556 1557 1558 1559 1560 1561 1561 1561 1562 1562 1562 1562 1562 1561 1561 1561 1561 1561 1560 1559
1516 1518 1520 1520 1519 1522 1525 1525 1526 1527 1528 1529 1531 1532 1533 1534 1535 1536 1537 1538 1539 1539 1540 1540 1540 1541 1541 1541 1542 1542 1542 1541 1541 1542 1542 1542 1543 1543 1543 1544 1544 1545 1546 1547 1547 1547 1548 1548 1548 1548 1548 1549 1549 1550 1550 1551 1553 1554 1554 1555 1554 1553 1553 1554 1555 1556 1557 1558 1559 1561 1562 1562 1562 1562 1562 1562 1562 1562 1562 1561 1561 1561 1561 1561 1561
1518 1518 1519 1520 1520 1521 1524 1525 1526 1527 1528 1530 1531 1533 1534 1534 1535 1536 1537 1538 1539 1539 1540 1540 1541 1541 1542 1542 1542 1542 1542 1542 1542 1542 1542 1542 1542 1543 1543 1543 1544 1545 1546 1547 1547 1547 1548 1548 1548 1549 1549 1549 1549 1550 1551 1551 1553 1554 1555 1555 1554 1554 1554 1555 1555 1557 1558 1559 1560 1561 1562 1562 1562 1562 1562 1562 1563 1562 1562 1562 1561 1562 1562 1562 1561
1519 1520 1520 1520 1521 1522 1524 1525 1526 1528 1529 1531 1532 1533 1534 1535 1535 1536 1537 1538 1539 1539 1540 1540 1541 1541 1542 1542 1542 1543 1543 1542 1542 1542 1542 1542 1542 1542 1543 1543 1544 1545 1546 1547 1547 1548 1548 1548 1549 1549 1549 1549 1549 1550 1550 1551 1553 1554 1555 1555 1555 1555 1555 1555 1555 1557 1558 1559 1560 1561 1562 1562 1562 1562 1563 1562 1563 1563 1562 1562 1562 1562 1562 1562 1562
1518 1520 1520 1521 1522 1524 1525 1526 1528 1529 1530 1531 1533 1533 1534 1535 1536 1536 1537 1538 1539 1540 1540 1541 1541 1542 1542 1542 1543 1543 1543 1543 1542 1542 1542 1542 1542 1542 1543 1543 1544 1545 1546 1547 1547 1548 1548 1548 1549 1549 1549 1549 1550 1550 1550 1551 1552 1553 1554 1555 1555 1555 1555 1555 1556 1557 1558 1559 1560 1561 1562 1562 1562 1562 1563 1562 1562 1563 1563 1562 1562 1562 1562 1562 1562
1516 1520 1521 1521 1523 1525 1526 1528 1529 1530 1531 1532 1533 1534 1534 1535 1536 1537 1537 1538 1539 1540 1540 1541 1541 1542 1542 1542 1543 1543 1543 1543 1542 1542 1542 1542 1542 1542 1543 1543 1544 1545 1546 1546 1547 1548 1548 1548 1549 1549 1549 1550 1550 1550 1550 1551 1551 1553 1554 1555 1555 1555 1556 1556 1556 1557 1558 1559 1560 1561 1561 1562 1562 1562 1562 1562 1562 1562 1562 1562 1562 1562 1562 1562 1562
1515 1519 1521 1523 1524 1526 1527 1529 1530 1531 1532 1533 1533 1534 1534 1535 1536 1537 1538 1539 1539 1540 1540 1541 1542 1541 1542 1542 1542 1542 1542 1542 1542 1542 1542 1542 1542 1542 1543 1543 1544 1544 1545 1546 1547 1548 1548 1548 1549 1549 1550 1550 1550 1550 1550 1551 1551 1552 1554 1555 1555 1555 1556 1556 1556 1557 1557 1559 1560 1561 1561 1561 1561 1561 1561 1562 1562 1562 1562 1562 1562 1562 1562 1563 1563
1515 1518 1521 1523 1525 1527 1528 1530 1531 1531 1532 1532 1533 1534 1534 1535 1536 1537 1538 1539 1539 1539 1540 1541 1542 1541 1542 1542 1542 1542 1542 1542 1541 1541 1542 1542 1542 1542 1542 1543 1543 1544 1545 1546 1547 1548 1548 1548 1549 1549 1550 1550 1550 1550 1550 1551 1551 1552 1553 1554 1555 1555 1556 1556 1556 1557 1557 1558 1559 1560 1561 1561 1561 1561 1561 1561 1561 1562 1562 1562 1562 1562 1562 1563 1563
1516 1519 1521 1522 1524 1526 1528 1530 1531 1531 1532 1532 1533 1533 1534 1534 1535 1537 1538 1538 1539 1539 1540 1541 1542 1541 1541 1541 1541 1541 1541 1541 1541 1541 1541 1541 1541 1542 1542 1543 1543 1544 1544 1545 1546 1547 1548 1548 1549 1549 1550 1550 1550 1550 1550 1550 1551 1552 1553 1554 1554 1555 1555 1556 1556 1557 1557 1558 1559 1559 1560 1560 1561 1561 1561 1561 1561 1561 1562 1562 1562 1562 1562 1563 1563
1517 1519 1520 1522 1524 1526 1527 1529 1530 1531 1531 1532 1533 1533 1534 1534 1535 1536 1537 1538 1539 1539 1540 1541 1541 1541 1541 1541 1541 1540 1540 1540 1541 1541 1541 1541 1541 1541 1542 1542 1543 1543 1544 1545 1546 1547 1548 1548 1549 1549 1549 1550 1550 1550 1550 1550 1550 1551 1552 1553 1554 1555 1555 1555 1556 1557 1557 1558 1558 1559 1559 1560 1560 1561 1560 1560 1560 1560 1561 1562 1562 1562 1562 1563 1563
1516 1518 1520 1521 1523 1524 1526 1528 1529 1530 1531 1532 1532 1533 1534 1534 1535 1536 1538 1539 1539 1539 1540 1540 1540 1540 1540 1540 1540 1539 1540 1539 1540 1540 1540 1540 1540 1541 1541 1542 1542 1543 1543 1544 1545 1546 1547 1548 1548 1549 1549 1549 1550 1550 1550 1550 1550 1550 1551 1553 1554 1554 1554 1555 1555 1556 1557 1558 1558 1559 1559 1559 1560 1560 1560 1560 1560 1560 1560 1561 1561 1562 1562 1562 1563
1515 1518 1519 1521 1522 1524 1526 1527 1529 1529 1530 1532 1533 1533 1534 1534 1535 1536 1537 1539 1539 1539 1539 1539 1539 1539 1538 1538 1538 1539 1539 1539 1539 1539 1539 1539 1539 1540 1540 1541 1542 1542 1543 1544 1545 1545 1546 1547 1548 1548 1549 1549 1549 1550 1550 1550 1550 1550 1551 1552 1553 1553 1554 1554 1555 1556 1557 1557 1558 1558 1559 1559 1559 1560 1560 1560 1560 1560 1560 1560 1561 1561 1562 1562 1562
1514 1517 1519 1520 1522 1524 1526 1527 1528 1530 1531 1532 1533 1533 1534 1534 1534 1535 1537 1538 1539 1538 1538 1538 1538 1537 1537 1537 1537 1538 1538 1538 1538 1538 1537 1538 1539 1539 1540 1540 1541 1542 1543 1543 1544 1545 1545 1546 1547 1547 1548 1549 1549 1550 1550 1550 1550 1550 1551 1552 1553 1553 1553 1554 1554 1555 1556 1557 1557 1558 1558 1558 1559 1559 1559 1560 1560 1560 1560 1560 1560 1561 1561 1562 1562
1513 1516 1519 1519 1522 1525 1527 1528 1529 1530 1531 1532 1533 1533 1533 1533 1534 1535 1536 1537 1538 1538 1537 1537 1537 1537 1537 1536 1536 1537 1537 1537 1537 1537 1537 1537 1538 1538 1539 1540 1541 1541 1542 1543 1543 1544 1545 1545 1546 1547 1548 1548 1549 1549 1549 1549 1550 1550 1551 1552 1552 1552 1552 1553 1554 1555 1556 1556 1557 1557 1558 1558 1558 1559 1559 1560 1560 1559 1559 1559 1560 1560 1561 1561 1562
1512 1515 1517 1518 1522 1526 1527 1528 1529 1530 1531 1532 1532 1533 1533 1533 1533 1534 1535 1536 1537 1537 1536 1536 1536 1536 1536 1536 1535 1535 1536 1536 1537 1537 1536 1537 1537 1537 1538 1539 1540 1541 1541 1542 1542 1543 1544 1545 1546 1546 1547 1548 1548 1549 1549 1549 1549 1550 1551 1552 1552 1552 1552 1552 1553 1554 1555 1556 1556 1557 1557 1557 1558 1558 1559 1559 1560 1559 1559 1559 1559 1560 1560 1561 1561
1511 1514 1515 1517 1520 1524 1526 1527 1528 1529 1530 1531 1532 1532 1533 1533 1533 1533 1534 1535 1536 1536 1535 1534 1534 1535 1535 1534 1534 1534 1535 1535 1536 1536 1536 1536 1537 1537 1538 1539 1540 1540 1541 1541 1542 1542 1543 1544 1545 1546 1547 1548 1548 1548 1549 1549 1549 1549 1550 1551 1551 1551 1551 1551 1552 1554 1554 1555 1555 1556 1557 1557 1557 1558 1558 1559 1559 1559 1559 1559 1559 1560 1560 1560 1561
1512 1514 1515 1517 1518 1521 1524 1526 1527 1528 1530 1531 1532 1532 1532 1532 1532 1533 1533 1534 1534 1534 1534 1534 1533 1533 1533 1533 1533 1534 1534 1534 1535 1535 1535 1536 1537 1537 1537 1538 1539 1539 1540 1541 1541 1542 1543 1544 1544 1545 1546 1547 1548 1548 1548 1549 1549 1549 1550 1551 1551 1550 1550 1551 1551 1552 1554 1554 1555 1555 1556 1556 1557 1557 1558 1558 1559 1559 1559 1559 1559 1559 1559 1560 1560
1511 1513 1514 1516 1517 1520 1524 1526 1527 1528 1529 1531 1531 1532 1532 1532 1532 1533 1533 1533 1533 1533 1533 1533 1533 1532 1533 1533 1533 1533 1533 1534 1534 1535 1535 1536 1536 1537 1537 1537 1538 1539 1539 1540 1540 1541 1542 1543 1544 1545 1546 1546 1547 1547 1548 1548 1549 1549 1550 1550 1550 1550 1550 1550 1551 1551 1553 1554 1554 1555 1556 1556 1556 1556 1557 1558 1558 1559 1559 1559 1559 1559 1559 1559 1559
1509 1510 1512 1514 1516 1520 1524 1525 1527 1528 1529 1531 1531 1532 1532 1532 1533 1533 1533 1533 1532 1532 1531 1532 1532 1532 1533 1533 1532 1532 1533 1533 1534 1534 1534 1535 1536 1536 1536 1537 1537 1538 1539 1539 1540 1541 1541 1542 1543 1544 1545 1546 1546 1546 1547 1548 1548 1549 1549 1550 1550 1550 1549 1549 1550 1551 1552 1553 1554 1554 1555 1555 1556 1556 1556 1557 1557 1558 1558 1559 1559 1559 1559 1559 1559
1507 1508 1511 1513 1517 1520 1523 1525 1526 1528 1529 1531 1532 1532 1532 1532 1533 1533 1533 1532 1532 1531 1531 1531 1532 1532 1533 1532 1532 1532 1532 1533 1533 1533 1534 1534 1535 1536 1536 1536 1537 1537 1538 1539 1539 1540 1541 1541 1542 1543 1544 1545 1545 1545 1546 1547 1547 1548 1548 1549 1549 1550 1550 1550 1550 1551 1551 1552 1553 1554 1554 1555 1555 1556 1556 1556 1557 1557 1558 1558 1559 1559 1559 1559 1559
1509 1509 1511 1514 1517 1520 1523 1525 1526 1527 1529 1531 1532 1532 1532 1532 1532 1532 1532 1532 1531 1531 1531 1531 1531 1532 1533 1532 1532 1531 1532 1532 1532 1532 1533 1534 1534 1535 1535 1536 1536 1537 1537 1538 1538 1539 1540 1540 1541 1542 1543 1544 1544 1544 1545 1545 1546 1547 1547 1548 1549 1550 1550 1550 1550 1550 1551 1551 1552 1553 1553 1554 1554 1555 1556 1556 1556 1557 1557 1558 1558 1558 1559 1559 1559
1511 1510 1512 1515 1518 1521 1523 1524 1526 1528 1529 1530 1531 1532 1532 1532 1531 1532 1532 1531 1531 1531 1532 1532 1532 1533 1533 1533 1532 1531 1531 1531 1531 1532 1532 1533 1533 1534 1534 1535 1535 1536 1536 1537 1537 1538 1539 1539 1540 1542 1542 1543 1543 1544 1544 1544 1545 1546 1547 1547 1548 1549 1550 1550 1550 1550 1550 1551 1551 1551 1552 1553 1553 1554 1555 1555 1556 1556 1557 1557 1557 1558 1558 1559 1559
1511 1512 1514 1516 1519 1521 1523 1524 1526 1527 1529 1530 1530 1531 1531 1531 1531 1531 1531 1531 1531 1532 1533 1533 1534 1534 1534 1533 1532 1532 1531 1531 1531 1532 1532 1532 1532 1533 1533 1534 1534 1534 1535 1536 1537 1537 1538 1539 1540 1541 1542 1542 1543 1543 1543 1544 1544 1545 1546 1547 1547 1548 1549 1550 1550 1550 1550 1550 1550 1550 1551 1552 1552 1553 1553 1554 1555 1555 1556 1556 1557 1557 1558 1558 1559
1510 1512 1515 1517 1519 1521 1523 1524 1525 1527 1528 1529 1529 1529 1530 1531 1531 1531 1532 1532 1532 1532 1533 1534 1535 1535 1535 1534 1533 1532 1531 1531 1531 1531 1531 1531 1531 1532 1532 1532 1533 1533 1534 1535 1536 1537 1537 1538 1538 1540 1540 1541 1542 1543 1543 1543 1544 1544 1545 1546 1547 1548 1548 1549 1549 1549 1550 1549 1549 1550 1550 1551 1551 1552 1552 1553 1554 1554 1555 1555 1556 1556 1557 1557 1557
1510 1512 1514 1517 1519 1520 1522 1523 1525 1526 1527 1528 1528 1529 1529 1530 1530 1531 1532 1533 1533 1533 1533 1534 1534 1534 1535 1535 1534 1534 1533 1532 1531 1531 1531 1531 1531 1531 1531 1531 1532 1532 1533 1534 1535 1536 1536 1537 1538 1539 1539 1540 1542 1542 1543 1543 1544 1544 1545 1546 1546 1547 1547 1547 1548 1548 1549 1548 1548 1549 1550 1550 1550 1551 1551 1552 1553 1553 1554 1554 1555 1555 1555 1556 1556
1509 1511 1514 1516 1518 1520 1521 1523 1524 1526 1527 1527 1528 1529 1530 1530 1530 1531 1532 1533 1534 1535 1534 1534 1534 1534 1534 1534 1535 1535 1534 1533 1533 1532 1532 1531 1531 1531 1531 1531 1532 1532 1533 1533 1534 1535 1536 1536 1537 1538 1538 1539 1540 1542 1542 1543 1543 1544 1544 1545 1545 1545 1546 1546 1547 1547 1547 1547 1547 1548 1549 1549 1549 1550 1550 1551 1551 1552 1553 1553 1554 1554 1554 1555 1555
1509 1511 1513 1515 1517 1519 1521 1523 1524 1525 1526 1527 1528 1529 1531 1531 1531 1532 1532 1533 1534 1534 1534 1534 1534 1534 1534 1534 1534 1535 1535 1534 1533 1533 1532 1532 1531 1531 1531 1531 1532 1532 1532 1533 1534 1534 1535 1535 1536 1536 1537 1538 1539 1541 1541 1542 1542 1543 1543 1544 1544 1544 1545 1545 1545 1545 1546 1546 1547 1547 1548 1548 1549 1549 1550 1550 1550 1551 1551 1552 1553 1553 1553 1554 1554
1509 1510 1512 1514 1516 1518 1520 1522 1523 1524 1525 1526 1528 1529 1531 1532 1533 1533 1533 1533 1533 1534 1534 1534 1534 1534 1534 1534 1534 1535 1535 1534 1534 1533 1532 1532 1531 1531 1531 1531 1531 1532 1532 1532 1533 1533 1533 1534 1534 1535 1536 1537 1538 1539 1540 1541 1542 1542 1543 1543 1544 1544 1544 1544 1544 1544 1545 1545 1546 1546 1547 1547 1548 1548 1548 1549 1549 1550 1550 1551 1551 1552 1552 1553 1553
1508 1509 1511 1513 1515 1518 1520 1521 1522 1524 1525 1526 1527 1529 1530 1531 1532 1532 1533 1533 1533 1533 1534 1534 1534 1535 1535 1535 1535 1535 1535 1535 1534 1533 1532 1532 1532 1531 1531 1531 1531 1531 1531 1532 1533 1533 1533 1534 1534 1535 1536 1536 1537 1538 1539 1540 1541 1542 1542 1542 1543 1543 1543 1544 1544 1544 1544 1544 1545 1545 1546 1547 1547 1547 1547 1547 1548 1549 1549 1550 1550 1550 1551 1552 1552
1508 1510 1511 1513 1515 1518 1519 1521 1522 1523 1525 1526 1527 1529 1530 1531 1531 1531 1531 1532 1533 1534 1534 1534 1535 1535 1535 1535 1535 1536 1536 1536 1535 1534 1533 1533 1532 1532 1531 1531 1531 1531 1532 1532 1533 1533 1534 1534 1534 1535 1535 1536 1537 1538 1538 1539 1540 1541 1541 1542 1542 1543 1543 1543 1543 1543 1543 1544 1544 1544 1545 1545 1545 1546 1546 1545 1546 1548 1548 1548 1549 1549 1550 1550 1551
1508 1510 1512 1514 1516 1518 1519 1521 1522 1523 1525 1526 1527 1528 1529 1530 1531 1531 1532 1532 1533 1534 1534 1535 1535 1535 1535 1535 1536 1536 1537 1537 1536 1535 1535 1534 1534 1533 1532 1532 1532 1533 1533 1533 1534 1534 1534 1534 1535 1535 1535 1536 1536 1537 1538 1538 1539 1540 1541 1542 1542 1542 1543 1543 1543 1543 1543 1543 1544 1544 1544 1544 1544 1545 1545 1544 1545 1547 1547 1547 1548 1548 1549 1549 1549
1507 1509 1511 1513 1515 1517 1519 1520 1521 1523 1524 1526 1527 1528 1529 1530 1531 1532 1533 1533 1534 1534 1534 1535 1535 1535 1536 1536 1536 1537 1537 1538 1538 1537 1536 1536 1536 1535 1534 1534 1534 1534 1534 1534 1535 1535 1535 1535 1535 1535 1536 1536 1536 1537 1538 1538 1539 1539 1540 1541 1542 1542 1543 1543 1542 1543 1543 1544 1544 1544 1544 1544 1544 1544 1544 1544 1545 1546 1546 1547 1547 1547 1547 1548 1548
1506 1508 1510 1512 1514 1516 1518 1519 1520 1522 1523 1525 1526 1527 1528 1529 1531 1532 1533 1534 1534 1534 1534 1535 1536 1536 1536 1536 1536 1537 1537 1538 1538 1538 1538 1537 1537 1536 1536 1535 1535 1535 1535 1535 1535 1535 1536 1536 1536 1536 1536 1536 1536 1537 1537 1538 1538 1539 1540 1541 1542 1542 1543 1543 1543 1543 1543 1544 1544 1544 1543 1544 1544 1544 1544 1544 1544 1545 1546 1546 1546 1547 1547 1547 1547
1506 1508 1509 1511 1513 1515 1516 1517 1519 1520 1521 1523 1525 1525 1526 1528 1530 1532 1534 1534 1534 1534 1534 1535 1536 1536 1536 1536 1536 1537 1537 1538 1539 1539 1539 1538 1538 1538 1537 1537 1536 1536 1536 1536 1536 1536 1536 1536 1536 1536 1537 1537 1537 1537 1538 1538 1539 1539 1540 1541 1542 1542 1543 1543 1543 1543 1543 1543 1543 1543 1543 1543 1544 1544 1544 1544 1544 1544 1545 1545 1545 1545 1545 1546 1547
1506 1507 1508 1509 1511 1512 1514 1516 1517 1519 1520 1522 1524 1525 1525 1526 1530 1532 1534 1535 1535 1534 1534 1534 1535 1536 1536 1536 1536 1537 1537 1538 1539 1539 1539 1539 1539 1539 1538 1538 1537 1537 1537 1537 1537 1537 1537 1537 1537 1537 1538 1538 1539 1539 1539 1539 1540 1540 1541 1541 1542 1542 1542 1543 1543 1543 1543 1543 1543 1542 1543 1543 1544 1544 1544 1543 1543 1543 1543 1543 1542 1543 1544 1545 1546